カタログに戻る

STARLINK-35852

運用中通信VLEO
NORAD 66889·PAYLOAD·🇺🇸 United States

打ち上げ Dec 4, 2025 から Vandenberg Space Force Base

Loading…

次のパス (今後24時間)

TLE

最新Source: CelesTrak SupGP

元期: Sep 14, 2026, 23:13 UTC

1 66889C 25283M   26257.96784722  .00002344  00000+0  69221-4 0  2577
2 66889  53.1587 221.4294 0001420  91.2588 271.7107 15.34400246    17

AllMySatでSTARLINK-35852をリアルタイム追跡

Download on the App Store